Radiation Dose at Monitoring Post of Fukushima Daini Nuclear Power Station
Date,Time,MP-1(microSv/h),MP-2(microSv/h),MP-3(microSv/h),MP-4(microSv/h),MP-5(microSv/h),MP-6(microSv/h),MP-7(microSv/h),Wind Direction,Wind Velocity(m/s),Rain
2024/05/18,00:00,0.143,0.126,0.204,0.193,0.205,0.114,0.074,southeast,1.0,No
2024/05/18,00:10,0.143,0.127,0.204,0.191,0.203,0.113,0.074,southeast,2.3,No
2024/05/18,00:20,0.143,0.126,0.203,0.192,0.204,0.114,0.074,south-southwest,1.6,No
2024/05/18,00:30,0.144,0.126,0.203,0.191,0.203,0.113,0.075,south-southwest,1.7,No
2024/05/18,00:40,0.143,0.126,0.204,0.192,0.205,0.113,0.073,south-southwest,1.8,No
2024/05/18,00:50,0.143,0.125,0.205,0.193,0.204,0.114,0.073,west,2.1,No
2024/05/18,01:00,0.144,0.126,0.203,0.191,0.203,0.114,0.074,west-southwest,1.2,No
2024/05/18,01:10,0.144,0.126,0.204,0.192,0.203,0.114,0.075,west-southwest,0.8,No
2024/05/18,01:20,0.143,0.125,0.203,0.193,0.204,0.114,0.075,southwest,1.2,No
2024/05/18,01:30,0.144,0.127,0.204,0.192,0.204,0.112,0.074,southwest,1.0,No
2024/05/18,01:40,0.143,0.126,0.204,0.192,0.202,0.114,0.074,west-southwest,1.1,No
2024/05/18,01:50,0.144,0.126,0.204,0.191,0.205,0.113,0.074,west,2.3,No
2024/05/18,02:00,0.143,0.126,0.204,0.192,0.204,0.114,0.074,west,2.3,No
2024/05/18,02:10,0.143,0.126,0.204,0.192,0.204,0.113,0.074,west,2.5,No
2024/05/18,02:20,0.143,0.126,0.205,0.191,0.204,0.114,0.075,west,3.7,No
2024/05/18,02:30,0.142,0.126,0.203,0.191,0.202,0.114,0.075,west,3.3,No
2024/05/18,02:40,0.143,0.127,0.204,0.192,0.205,0.113,0.074,west,2.7,No
2024/05/18,02:50,0.144,0.126,0.203,0.192,0.201,0.113,0.075,west,2.4,No
2024/05/18,03:00,0.143,0.126,0.203,0.192,0.204,0.112,0.074,west,2.8,No
2024/05/18,03:10,0.144,0.126,0.204,0.192,0.204,0.114,0.074,west-southwest,2.6,No
2024/05/18,03:20,0.143,0.126,0.203,0.191,0.203,0.113,0.074,southwest,2.6,No
2024/05/18,03:30,0.143,0.126,0.203,0.193,0.205,0.113,0.074,south-southwest,2.1,No
2024/05/18,03:40,0.143,0.127,0.204,0.191,0.202,0.114,0.075,southwest,1.7,No
2024/05/18,03:50,0.143,0.127,0.203,0.192,0.205,0.112,0.074,southwest,2.4,No
2024/05/18,04:00,0.143,0.126,0.203,0.193,0.202,0.113,0.075,southwest,2.3,No
2024/05/18,04:10,0.143,0.126,0.205,0.191,0.203,0.113,0.074,southwest,2.4,No
2024/05/18,04:20,0.143,0.126,0.203,0.191,0.203,0.114,0.074,southwest,2.9,No
2024/05/18,04:30,0.143,0.126,0.203,0.191,0.203,0.114,0.074,southwest,2.7,No
2024/05/18,04:40,0.143,0.127,0.204,0.191,0.204,0.114,0.074,south-southwest,2.7,No
2024/05/18,04:50,0.144,0.125,0.203,0.191,0.202,0.113,0.074,south-southwest,2.4,No
2024/05/18,05:00,0.142,0.126,0.204,0.191,0.203,0.113,0.075,south,2.4,No
2024/05/18,05:10,0.144,0.126,0.204,0.190,0.203,0.113,0.074,south-southwest,2.1,No
2024/05/18,05:20,0.144,0.126,0.204,0.193,0.205,0.114,0.074,south,2.2,No
2024/05/18,05:30,0.142,0.126,0.203,0.192,0.202,0.113,0.074,south-southwest,1.7,No
2024/05/18,05:40,0.143,0.126,0.204,0.192,0.204,0.113,0.074,south-southwest,1.4,No
2024/05/18,05:50,0.142,0.125,0.203,0.192,0.202,0.113,0.075,south-southwest,1.9,No
2024/05/18,06:00,0.143,0.125,0.204,0.191,0.204,0.113,0.074,south,1.7,No
2024/05/18,06:10,0.143,0.126,0.203,0.192,0.201,0.112,0.074,south-southwest,2.1,No
2024/05/18,06:20,0.142,0.126,0.203,0.190,0.204,0.113,0.074,south-southwest,2.4,No
2024/05/18,06:30,0.144,0.125,0.204,0.191,0.203,0.113,0.074,south-southwest,1.7,No
2024/05/18,06:40,0.143,0.125,0.203,0.189,0.203,0.113,0.074,south-southwest,2.0,No
2024/05/18,06:50,0.143,0.127,0.204,0.190,0.204,0.114,0.075,south-southwest,2.4,No
2024/05/18,07:00,0.145,0.125,0.203,0.191,0.202,0.113,0.074,south-southwest,2.7,No
2024/05/18,07:10,0.143,0.127,0.203,0.191,0.205,0.113,0.073,south-southwest,2.4,No
2024/05/18,07:20,0.142,0.125,0.202,0.192,0.202,0.113,0.074,south-southwest,2.9,No
2024/05/18,07:30,0.144,0.125,0.201,0.190,0.203,0.114,0.073,south-southwest,2.5,No
2024/05/18,07:40,0.143,0.126,0.203,0.190,0.204,0.113,0.073,south,2.0,No
2024/05/18,07:50,0.141,0.126,0.203,0.193,0.201,0.113,0.074,south,3.3,No
2024/05/18,08:00,0.142,0.126,0.202,0.191,0.203,0.113,0.074,south-southeast,3.5,No
2024/05/18,08:10,0.144,0.125,0.202,0.190,0.203,0.113,0.074,south-southeast,5.0,No
2024/05/18,08:20,0.144,0.126,0.201,0.189,0.203,0.113,0.074,south-southeast,5.7,No
2024/05/18,08:30,0.142,0.126,0.200,0.189,0.201,0.112,0.074,south-southeast,6.5,No
2024/05/18,08:40,0.142,0.125,0.201,0.189,0.200,0.113,0.074,south-southeast,6.9,No
2024/05/18,08:50,0.141,0.128,0.201,0.189,0.204,0.113,0.074,south-southeast,7.5,No
2024/05/18,09:00,0.144,0.126,0.201,0.191,0.204,0.115,0.074,south-southeast,7.5,No
2024/05/18,09:10,0.143,0.126,0.201,0.192,0.202,0.113,0.074,south-southeast,8.1,No
2024/05/18,09:20,0.143,0.125,0.201,0.192,0.201,0.113,0.074,south-southeast,7.7,No
2024/05/18,09:30,0.142,0.125,0.201,0.191,0.200,0.113,0.074,south-southeast,8.3,No
2024/05/18,09:40,0.142,0.126,0.203,0.189,0.202,0.113,0.074,south-southeast,8.1,No
2024/05/18,09:50,0.141,0.126,0.204,0.190,0.205,0.114,0.074,south-southeast,8.8,No
2024/05/18,10:00,0.141,0.125,0.203,0.189,0.204,0.113,0.074,south-southeast,8.9,No
2024/05/18,10:10,0.141,0.125,0.204,0.190,0.203,0.113,0.074,south-southeast,7.9,No
2024/05/18,10:20,0.141,0.125,0.202,0.189,0.201,0.114,0.073,south,9.6,No
2024/05/18,10:30,0.141,0.125,0.204,0.190,0.201,0.113,0.073,south-southeast,8.8,No
2024/05/18,10:40,0.142,0.124,0.204,0.192,0.201,0.114,0.075,south,10.1,No
2024/05/18,10:50,0.142,0.125,0.203,0.193,0.200,0.114,0.074,south,9.5,No
2024/05/18,11:00,0.141,0.126,0.203,0.193,0.203,0.114,0.074,south,9.5,No
2024/05/18,11:10,0.143,0.125,0.204,0.191,0.205,0.113,0.073,south,10.1,No
2024/05/18,11:20,0.145,0.126,0.203,0.191,0.204,0.113,0.074,south,11.7,No
2024/05/18,11:30,0.144,0.127,0.203,0.190,0.203,0.113,0.073,south,9.6,No
2024/05/18,11:40,0.143,0.127,0.203,0.190,0.203,0.113,0.073,south,11.7,No
2024/05/18,11:50,0.143,0.125,0.204,0.191,0.203,0.114,0.073,south-southeast,11.2,No
2024/05/18,12:00,0.142,0.126,0.202,0.192,0.202,0.114,0.073,south-southeast,11.4,No
2024/05/18,12:10,0.143,0.126,0.204,0.192,0.202,0.114,0.074,south-southeast,10.9,No
2024/05/18,12:20,0.141,0.126,0.204,0.193,0.202,0.113,0.075,south,11.5,No
2024/05/18,12:30,0.142,0.125,0.203,0.192,0.202,0.113,0.074,south,11.5,No
2024/05/18,12:40,0.143,0.125,0.204,0.192,0.201,0.114,0.074,south-southeast,12.2,No
2024/05/18,12:50,0.143,0.127,0.204,0.192,0.201,0.113,0.073,south-southeast,12.0,No
2024/05/18,13:00,0.142,0.126,0.204,0.191,0.202,0.113,0.074,south,12.2,No
2024/05/18,13:10,0.142,0.124,0.204,0.191,0.203,0.114,0.074,south,14.8,No
2024/05/18,13:20,0.141,0.126,0.204,0.192,0.203,0.114,0.074,south,11.5,No
2024/05/18,13:30,0.142,0.126,0.204,0.195,0.203,0.114,0.074,south,12.6,No
2024/05/18,13:40,0.142,0.126,0.203,0.194,0.206,0.114,0.074,south,10.9,No
2024/05/18,13:50,0.142,0.126,0.204,0.192,0.204,0.113,0.074,south,11.1,No
2024/05/18,14:00,0.143,0.125,0.203,0.192,0.203,0.113,0.074,south-southeast,10.9,No
2024/05/18,14:10,0.143,0.125,0.205,0.191,0.203,0.113,0.074,south,11.7,No
2024/05/18,14:20,0.142,0.125,0.204,0.191,0.202,0.113,0.074,south,11.1,No
2024/05/18,14:30,0.143,0.126,0.204,0.191,0.202,0.115,0.074,south,10.4,No
2024/05/18,14:40,0.143,0.125,0.205,0.192,0.204,0.114,0.073,south,10.6,No
2024/05/18,14:50,0.143,0.126,0.204,0.194,0.202,0.113,0.075,south,10.3,No
2024/05/18,15:00,0.143,0.126,0.204,0.193,0.204,0.113,0.074,south,10.7,No
2024/05/18,15:10,0.142,0.126,0.205,0.195,0.202,0.113,0.074,south,10.6,No
2024/05/18,15:20,0.143,0.126,0.204,0.192,0.203,0.113,0.074,south,10.4,No
2024/05/18,15:30,0.142,0.127,0.206,0.192,0.202,0.113,0.073,south,10.1,No
2024/05/18,15:40,0.143,0.127,0.207,0.193,0.203,0.113,0.075,south,6.9,No
2024/05/18,15:50,0.145,0.127,0.206,0.195,0.205,0.113,0.075,south,8.5,No
2024/05/18,16:00,0.145,0.126,0.205,0.193,0.203,0.113,0.074,south,9.5,No
2024/05/18,16:10,0.143,0.126,0.208,0.193,0.204,0.115,0.075,south,8.4,No
2024/05/18,16:20,0.143,0.128,0.206,0.196,0.202,0.114,0.075,south,7.9,No
2024/05/18,16:30,0.143,0.125,0.206,0.194,0.203,0.113,0.074,south,7.1,No
2024/05/18,16:40,0.142,0.126,0.206,0.192,0.202,0.113,0.075,south,9.5,No
2024/05/18,16:50,0.145,0.127,0.207,0.195,0.203,0.114,0.074,south,9.0,No
2024/05/18,17:00,0.145,0.127,0.205,0.194,0.204,0.114,0.075,south,9.2,No
2024/05/18,17:10,0.143,0.127,0.207,0.193,0.202,0.113,0.075,south-southeast,8.4,No
2024/05/18,17:20,0.145,0.128,0.205,0.194,0.207,0.114,0.074,south,8.7,No
2024/05/18,17:30,0.145,0.127,0.205,0.194,0.206,0.115,0.074,south,8.1,No
2024/05/18,17:40,0.143,0.127,0.207,0.193,0.204,0.114,0.074,south,8.4,No
2024/05/18,17:50,0.145,0.128,0.205,0.195,0.205,0.115,0.075,south,9.8,No
2024/05/18,18:00,0.145,0.126,0.207,0.193,0.207,0.114,0.075,south,9.2,No
2024/05/18,18:10,0.143,0.127,0.207,0.195,0.204,0.113,0.074,south,8.6,No
2024/05/18,18:20,0.146,0.126,0.206,0.193,0.206,0.115,0.075,south,8.6,No
2024/05/18,18:30,0.144,0.127,0.207,0.194,0.205,0.114,0.075,south,7.4,No
2024/05/18,18:40,0.145,0.126,0.206,0.195,0.204,0.115,0.074,south-southwest,7.7,No
2024/05/18,18:50,0.145,0.127,0.207,0.194,0.206,0.113,0.075,south-southwest,7.6,No
2024/05/18,19:00,0.144,0.128,0.206,0.196,0.203,0.114,0.074,south-southwest,7.9,No
2024/05/18,19:10,0.145,0.128,0.207,0.193,0.206,0.114,0.074,south-southwest,6.7,No
2024/05/18,19:20,0.144,0.128,0.206,0.195,0.205,0.114,0.074,south-southwest,6.6,No
2024/05/18,19:30,0.145,0.128,0.208,0.194,0.205,0.114,0.074,south-southwest,6.8,No
2024/05/18,19:40,0.144,0.128,0.205,0.194,0.204,0.114,0.075,south-southwest,6.8,No
2024/05/18,19:50,0.145,0.127,0.207,0.194,0.206,0.113,0.074,south-southwest,5.8,No
2024/05/18,20:00,0.144,0.127,0.207,0.195,0.205,0.115,0.074,south-southwest,5.1,No
2024/05/18,20:10,0.144,0.127,0.207,0.194,0.204,0.114,0.075,south-southwest,5.3,No
2024/05/18,20:20,0.145,0.127,0.207,0.194,0.207,0.114,0.075,south-southwest,5.6,No
2024/05/18,20:30,0.144,0.127,0.206,0.194,0.204,0.113,0.075,south,5.6,No
2024/05/18,20:40,0.145,0.127,0.206,0.195,0.205,0.113,0.075,south-southwest,5.4,No
2024/05/18,20:50,0.144,0.127,0.208,0.194,0.204,0.113,0.074,south,5.5,No
2024/05/18,21:00,0.145,0.127,0.205,0.194,0.205,0.113,0.075,south,5.8,No
2024/05/18,21:10,0.145,0.127,0.208,0.195,0.204,0.114,0.074,south,5.3,No
2024/05/18,21:20,0.145,0.126,0.205,0.193,0.206,0.114,0.075,south,5.9,No
2024/05/18,21:30,0.144,0.127,0.207,0.194,0.204,0.114,0.075,south,4.7,No
2024/05/18,21:40,0.145,0.127,0.207,0.194,0.205,0.114,0.074,south,4.7,No
2024/05/18,21:50,0.144,0.128,0.207,0.195,0.205,0.114,0.074,south,4.7,No
2024/05/18,22:00,0.145,0.126,0.207,0.194,0.205,0.115,0.075,south-southwest,5.4,No
2024/05/18,22:10,0.144,0.127,0.208,0.195,0.204,0.114,0.074,south-southwest,5.5,No
2024/05/18,22:20,0.146,0.128,0.207,0.194,0.204,0.114,0.075,south-southwest,5.7,No
2024/05/18,22:30,0.145,0.128,0.207,0.195,0.206,0.113,0.075,south-southwest,5.3,No
2024/05/18,22:40,0.145,0.128,0.207,0.194,0.204,0.113,0.074,south-southwest,3.5,No
2024/05/18,22:50,0.144,0.127,0.207,0.195,0.205,0.114,0.074,south-southwest,4.1,No
2024/05/18,23:00,0.146,0.128,0.207,0.194,0.204,0.115,0.074,south-southwest,4.6,No
2024/05/18,23:10,0.144,0.127,0.207,0.196,0.205,0.114,0.075,south-southwest,5.0,No
2024/05/18,23:20,0.145,0.128,0.208,0.193,0.203,0.114,0.075,southwest,3.3,No
2024/05/18,23:30,0.144,0.127,0.207,0.196,0.206,0.114,0.075,southwest,2.2,No
2024/05/18,23:40,0.145,0.128,0.209,0.194,0.204,0.114,0.075,south-southwest,3.3,No
2024/05/18,23:50,0.144,0.128,0.207,0.195,0.204,0.114,0.075,south-southwest,3.8,No
